Starlink 30845

operational
NORAD ID: 58207 Int'l Des: 2023-170 Owner: SPXS Country: US Constellation: starlink
LEOCIRCULAR

Über Starlink 30845

Beschreibung wird geladen...

Live-Position

3D-Globus wird geladen...

Nächste Überflüge

Höhenverlauf

Altitude vs Time

uPlot chart will show altitude changes over time

Zweizeiliger Elementsatz

1 58207U 23170B 25350.27032691 .00000651 00000-0 63265-4 0 9998
2 58207 43.0024 288.9911 0001084 281.8023 78.2697 15.02535741117733
Epoch: 16. Dez. 2025 • Age: 20 hours

Aktueller Status

Höhe 571.7 km
Geschwindigkeit 7.58 km/s
Subsatellitenpunkt -43.14°S, 68.14°E
Startdatum 4. Nov. 2023
Alter 2.1 years
Typ internet

Technische Details

Klassifizierung Payload
Masse 730.00 kg
Trockenmasse 700.00 kg
Gesamtmasse 730.00 kg
Länge 0.30 m
Durchmesser 4.10 m
Spannweite 29.00 m
Form Box + pan
Hersteller SPXS
Bus-Typ Starlink V2M
Phasenstatus In Orbit
Besitzer/Staat SPXS/US

Große Konstellationen

Loading constellations...